Date String (YYYY-MM-DD hh:mm:ss) UTC,Instrument flags,Ambient pressure (hPa),Sample flow (lpm),Bypass flow (lpm),Sample temperature (°C),Ambient temperature (°C),ASC tube jacket temperature (°C),LED temperature (°C),Box temperature (°C),Sample RH (%),Span deviation,Mass concentration (μg/m³),Mass concentration (μg/m³),Mass concentration (μg/m³)
DateTimeUTC,F1_M11,P_M11,Q1_M11,Q2_M11,T1_M11,T2_M11,T3_M11,T4_M11,T5_M11,U1_M11,ZSPAN_M11,X2_M11,X0_M11,X1_M11
2023-02-07 22:00:00,,0828.0,4.99,0.00,24.0,22.6,00.0,32.8,25.8,08.3,0000.0,0002.11,0006.19,0001.24
2023-02-07 22:01:00,,0828.1,4.98,0.00,24.0,22.6,00.0,32.8,25.9,08.2,0000.0,0002.12,0006.21,0001.22
2023-02-07 22:02:00,,0828.1,5.02,0.00,24.0,22.6,00.0,32.8,25.9,08.3,0000.0,0002.12,0006.13,0001.20
2023-02-07 22:03:00,,0828.1,5.01,0.00,24.0,22.6,00.0,32.8,25.8,08.6,0000.0,0002.08,0005.87,0001.18
2023-02-07 22:04:00,,0828.1,5.01,0.00,24.0,22.6,00.0,32.9,25.9,09.1,0000.0,0002.04,0006.25,0001.15
2023-02-07 22:05:00,,0828.1,5.00,0.00,24.0,22.6,00.0,32.9,25.9,09.1,0000.0,0002.05,0007.08,0001.14
2023-02-07 22:06:00,,0828.1,5.00,0.00,24.0,22.7,00.0,32.9,25.9,08.9,0000.0,0002.03,0007.08,0001.13
2023-02-07 22:07:00,,0828.1,4.99,0.00,24.1,22.7,00.0,32.9,25.9,09.1,0000.0,0002.06,0007.24,0001.13
2023-02-07 22:08:00,,0828.1,5.00,0.00,24.1,22.7,00.0,32.9,25.9,09.1,0000.0,0002.09,0007.41,0001.13
2023-02-07 22:09:00,,0828.1,4.99,0.00,24.1,22.7,00.0,32.9,25.9,08.9,0000.0,0002.09,0007.18,0001.13
2023-02-07 22:10:00,,0828.1,4.98,0.00,24.1,22.6,00.0,32.9,25.9,09.2,0000.0,0002.17,0007.13,0001.14
2023-02-07 22:11:00,,0828.1,5.04,0.00,24.0,22.6,00.0,32.9,25.9,09.1,0000.0,0002.19,0007.14,0001.14
2023-02-07 22:12:00,,0828.1,5.02,0.00,24.1,22.6,00.0,32.9,25.9,08.6,0000.0,0002.20,0007.38,0001.16
2023-02-07 22:13:00,,0828.1,5.00,0.00,24.0,22.6,00.0,32.9,25.9,08.8,0000.0,0002.20,0007.70,0001.16
2023-02-07 22:14:00,,0828.1,5.01,0.00,24.0,22.6,00.0,32.9,25.9,08.8,0000.0,0002.27,0008.26,0001.17
2023-02-07 22:15:00,,0828.1,5.01,0.00,24.0,22.6,00.0,32.9,25.8,08.7,0000.0,0002.31,0008.40,0001.19
2023-02-07 22:16:00,,0828.1,5.01,0.00,24.0,22.5,00.0,32.9,25.8,08.9,0000.0,0002.33,0007.68,0001.20
2023-02-07 22:17:00,,0828.1,5.00,0.00,24.0,22.5,00.0,32.9,25.8,09.1,0000.0,0002.29,0007.56,0001.20
2023-02-07 22:18:00,,0828.1,5.00,0.00,24.0,22.5,00.0,32.9,25.8,09.1,0000.0,0002.26,0007.03,0001.20
2023-02-07 22:19:00,,0828.1,5.00,0.00,24.0,22.5,00.0,32.9,25.8,09.1,0000.0,0002.26,0006.82,0001.20
2023-02-07 22:20:00,,0828.2,5.03,0.00,24.0,22.5,00.0,32.9,25.8,09.1,0000.0,0002.27,0008.15,0001.21
2023-02-07 22:21:00,,0828.2,4.98,0.00,24.0,22.5,00.0,32.9,25.7,09.3,0000.0,0002.28,0008.38,0001.21
2023-02-07 22:22:00,,0828.2,5.00,0.00,24.0,22.5,00.0,32.9,25.8,09.1,0000.0,0002.23,0008.28,0001.21
2023-02-07 22:23:00,,0828.2,5.01,0.00,24.0,22.5,00.0,32.9,25.8,09.1,0000.0,0002.16,0008.03,0001.20
2023-02-07 22:24:00,,0828.2,5.02,0.00,24.0,22.5,00.0,32.9,25.8,09.1,0000.0,0002.17,0007.75,0001.21
2023-02-07 22:25:00,,0828.2,5.00,0.00,24.0,22.5,00.0,32.9,25.7,08.9,0000.0,0002.11,0007.16,0001.20
2023-02-07 22:26:00,,0828.2,5.01,0.00,24.0,22.5,00.0,32.9,25.7,08.7,0000.0,0002.09,0007.24,0001.20
2023-02-07 22:27:00,,0828.3,4.99,0.00,24.0,22.5,00.0,32.9,25.7,08.8,0000.0,0002.18,0007.46,0001.20
2023-02-07 22:28:00,,0828.2,5.00,0.00,24.0,22.5,00.0,32.9,25.7,08.8,0000.0,0002.22,0007.52,0001.20
2023-02-07 22:29:00,,0828.3,5.02,0.00,24.0,22.5,00.0,32.9,25.7,08.8,0000.0,0002.32,0008.08,0001.22
2023-02-07 22:30:00,,0828.2,5.00,0.00,24.0,22.5,00.0,32.8,25.7,08.8,0000.0,0002.36,0009.10,0001.23
2023-02-07 22:31:00,,0828.3,4.96,0.00,24.0,22.5,00.0,32.8,25.7,08.9,0000.0,0002.36,0008.74,0001.22
2023-02-07 22:32:00,,0828.2,4.99,0.00,24.0,22.5,00.0,32.8,25.7,08.9,0000.0,0002.34,0008.73,0001.23
2023-02-07 22:33:00,,0828.3,5.00,0.00,24.0,22.5,00.0,32.8,25.8,08.8,0000.0,0002.34,0008.83,0001.24
2023-02-07 22:34:00,,0828.2,5.04,0.00,24.0,22.5,00.0,32.8,25.7,08.6,0000.0,0002.44,0009.09,0001.24
2023-02-07 22:35:00,,0828.3,5.01,0.00,24.0,22.5,00.0,32.8,25.7,08.7,0000.0,0002.48,0009.79,0001.25
2023-02-07 22:36:00,,0828.3,5.01,0.00,24.0,22.5,00.0,32.8,25.7,08.8,0000.0,0002.51,0010.26,0001.26
2023-02-07 22:37:00,,0828.3,5.01,0.00,24.0,22.5,00.0,32.8,25.7,09.0,0000.0,0002.55,0010.62,0001.27
2023-02-07 22:38:00,,0828.3,5.00,0.00,24.0,22.5,00.0,32.8,25.7,08.8,0000.0,0002.50,0010.56,0001.28
2023-02-07 22:39:00,,0828.3,5.00,0.00,24.0,22.5,00.0,32.8,25.7,08.9,0000.0,0002.49,0010.62,0001.27
2023-02-07 22:40:00,,0828.3,4.97,0.00,24.0,22.5,00.0,32.8,25.7,09.0,0000.0,0002.46,0010.20,0001.26
2023-02-07 22:41:00,,0828.3,5.04,0.00,24.0,22.5,00.0,32.8,25.7,08.8,0000.0,0002.43,0009.76,0001.24
2023-02-07 22:42:00,,0828.3,4.97,0.00,24.0,22.4,00.0,32.8,25.7,09.0,0000.0,0002.47,0010.75,0001.22
2023-02-07 22:43:00,,0828.3,5.02,0.00,24.0,22.4,00.0,32.8,25.7,09.2,0000.0,0002.44,0010.71,0001.20
2023-02-07 22:44:00,,0828.3,5.00,0.00,24.0,22.5,00.0,32.8,25.7,09.2,0000.0,0002.45,0012.16,0001.18
2023-02-07 22:45:00,,0828.3,5.02,0.00,24.0,22.5,00.0,32.8,25.7,09.0,0000.0,0002.40,0013.03,0001.17
2023-02-07 22:46:00,,0828.3,5.01,0.00,24.0,22.5,00.0,32.8,25.7,09.0,0000.0,0002.47,0013.78,0001.15
2023-02-07 22:47:00,,0828.3,4.98,0.00,24.0,22.5,00.0,32.8,25.7,09.0,0000.0,0002.50,0013.85,0001.13
2023-02-07 22:48:00,,0828.3,4.99,0.00,24.0,22.5,00.0,32.8,25.7,08.9,0000.0,0002.47,0013.45,0001.10
2023-02-07 22:49:00,,0828.3,5.00,0.00,24.0,22.4,00.0,32.8,25.7,08.9,0000.0,0002.44,0013.43,0001.07
2023-02-07 22:50:00,,0828.3,5.02,0.00,23.9,22.4,00.0,32.8,25.6,08.9,0000.0,0002.48,0013.77,0001.05
2023-02-07 22:51:00,,0828.4,4.99,0.00,24.0,22.4,00.0,32.8,25.7,08.9,0000.0,0002.49,0013.97,0001.03
2023-02-07 22:52:00,,0828.4,5.03,0.00,23.9,22.4,00.0,32.8,25.7,08.9,0000.0,0002.47,0013.97,0001.01
2023-02-07 22:53:00,,0828.5,5.01,0.00,23.9,22.4,00.0,32.8,25.7,08.9,0000.0,0002.41,0012.21,0000.99
2023-02-07 22:54:00,,0828.5,4.99,0.00,23.9,22.4,00.0,32.8,25.7,08.8,0000.0,0002.31,0012.09,0000.97
2023-02-07 22:55:00,,0828.5,5.00,0.00,24.0,22.4,00.0,32.8,25.7,08.9,0000.0,0002.28,0011.86,0000.95
2023-02-07 22:56:00,,0828.5,5.00,0.00,23.9,22.5,00.0,32.8,25.6,08.8,0000.0,0002.26,0011.11,0000.92
2023-02-07 22:57:00,,0828.5,4.99,0.00,23.9,22.4,00.0,32.8,25.6,08.9,0000.0,0002.10,0010.60,0000.90
2023-02-07 22:58:00,,0828.5,5.00,0.00,23.9,22.4,00.0,32.8,25.7,08.7,0000.0,0002.04,0010.26,0000.88
2023-02-07 22:59:00,,0828.5,5.01,0.00,23.9,22.4,00.0,32.8,25.6,08.8,0000.0,0001.99,0010.58,0000.85
